This demonstration page uses our WeatherBlox Daily Observations layout. Learn more.

Left ArrowRight Arrow

39.92423, -83.80882

Hourly Observations for March 16, 2020

Temp ( °F °C ) Dew Point ( °F °C ) Humidity (%) Winds ( mph kmh ) Pressure ( in mb ) Visibility ( mi km ) Precip ( " mm )
12:56 am 00:56 Mostly Clear 32 0 26 -3.3 79 79 NE 8 13 30.48 1032 10 16.0934 0 0
1:56 am 01:56 Cloudy 31 -0.6 25 -3.9 79 79 NE 7 11 30.46 1032 10 16.0934 0 0
2:56 am 02:56 Cloudy 33 0.6 25 -3.9 72 72 ENE 8 13 30.45 1031 10 16.0934 0 0
3:56 am 03:56 Cloudy 33 0.6 25 -3.9 72 72 ENE 7 11 30.42 1030 10 16.0934 0 0
4:56 am 04:56 Cloudy 33 0.6 26 -3.3 75 75 ENE 7 11 30.4 1030 10 16.0934 0 0
5:56 am 05:56 Cloudy 33 0.6 26 -3.3 75 75 ENE 6 9 30.4 1029 10 16.0934 0 0
6:56 am 06:56 Cloudy 33 0.6 26 -3.3 75 75 E 6 9 30.39 1029 10 16.0934 0 0
7:56 am 07:56 Cloudy 33 0.6 26 -3.3 75 75 E 6 9 30.4 1029 10 16.0934 0 0
8:56 am 08:56 Cloudy 34 1.1 26 -3.3 73 73 NE 6 9 30.4 1030 10 16.0934 0 0
9:56 am 09:56 Cloudy 35 1.7 27 -2.8 72 72 ENE 5 7 30.39 1029 10 16.0934 0 0
10:56 am 10:56 Cloudy 38 3.3 30 -1.1 73 73 ESE 8 13 30.35 1028 10 16.0934 0 0
11:56 am 11:56 Cloudy 41 5 33 0.6 73 73 SSE 7 11 30.35 1028 10 16.0934 0 0
12:56 pm 12:56 Cloudy 42 5.6 34 1.1 73 73 SSE 5 7 30.34 1028 10 16.0934 0 0
1:56 pm 13:56 Cloudy 46 7.8 36 2.2 68 68 SSW 3 6 30.3 1026 10 16.0934 0 0
2:45 pm 14:45 Mostly Cloudy 46 8 36 2 66 66 S 7 11 30.27 1025 10 16.0934 0 0
2:56 pm 14:56 Mostly Cloudy 47 8.3 37 2.8 69 69 SSE 5 7 30.26 1025 10 16.0934 0 0
3:56 pm 15:56 Cloudy 46 7.8 35 1.7 66 66 Calm 30.23 1024 10 16.0934 0 0
4:56 pm 16:56 Cloudy with Light Rain 46 7.8 37 2.8 71 71 SSE 8 13 30.21 1023 10 16.0934 0.001 0.001
5:47 pm 17:47 Cloudy 46 8 39 4 76 76 SSW 6 9 30.21 1023 10 16.0934 0.001 0.001
5:56 pm 17:56 Cloudy 46 7.8 38 3.3 73 73 SSW 8 13 30.22 1024 10 16.0934 0.001 0.001
6:56 pm 18:56 Cloudy 45 7.2 39 3.9 80 80 S 9 15 30.2 1023 10 16.0934 0 0
7:56 pm 19:56 Cloudy 43 6.1 39 3.9 86 86 S 9 15 30.21 1023 10 16.0934 0 0
8:54 pm 20:54 Cloudy with Light Rain 43 6 39 4 87 87 SSW 8 13 30.23 1024 10 16.0934 0.001 0.001
8:56 pm 20:56 Cloudy with Light Rain 43 6.1 39 3.9 86 86 SSW 7 11 30.23 1024 10 16.0934 0.001 0.001
9:56 pm 21:56 Cloudy with Light Rain 42 5.6 40 4.4 92 92 SSW 6 9 30.22 1023 10 16.0934 0.01 0.254
10:56 pm 22:56 Cloudy with Light Rain 41 5 41 5 100 100 SSW 7 11 30.21 1023 10 16.0934 0.01 0.254
11:56 pm 23:56 Cloudy with Light Rain 41 5 41 5 100 100 SSW 6 9 30.19 1023 10 16.0934 0.001 0.001

Powered by AerisWeather